| time (UTC) | temp F | wind direction | speed knots | gust knots | rain 1hr in | rain 24hr in | rain mn in | humidity % | barometer mb |
| 20260505184004 | 58 | 308 | 1.7 | 2.6 | 0.00 | 0.00 | 0.00 | 74 | 1010.8 |
| 20260505183003 | 58 | 308 | 0.9 | 1.7 | 0.00 | 0.00 | 0.00 | 73 | 1010.8 |
| 20260505181004 | 58 | 308 | 0.9 | 2.6 | 0.00 | 0.00 | 0.00 | 73 | 1010.7 |
| 20260505180003 | 58 | 307 | 0.9 | 1.7 | 0.00 | 0.00 | 0.00 | 73 | 1010.8 |
| 20260505174003 | 58 | 307 | 1.7 | 2.6 | 0.00 | 0.00 | 0.00 | 72 | 1010.8 |
| 20260505173003 | 58 | 315 | 1.7 | 2.6 | 0.00 | 0.00 | 0.00 | 72 | 1010.9 |
| 20260505172004 | 58 | 317 | 1.7 | 2.6 | 0.00 | 0.00 | 0.00 | 72 | 1010.9 |
| 20260505171004 | 58 | 323 | 1.7 | 2.6 | 0.00 | 0.00 | 0.00 | 71 | 1010.9 |
| 20260505170004 | 59 | 312 | 1.7 | 2.6 | 0.00 | 0.00 | 0.00 | 71 | 1011.0 |
| 20260505165004 | 59 | 312 | 1.7 | 4.3 | 0.00 | 0.00 | 0.00 | 71 | 1011.0 |
| 20260505164003 | 59 | 319 | 1.7 | 4.3 | 0.00 | 0.00 | 0.00 | 71 | 1011.0 |
| 20260505163003 | 59 | 320 | 1.7 | 7.8 | 0.00 | 0.00 | 0.00 | 70 | 1010.9 |
| 20260505162003 | 59 | 322 | 2.6 | 6.1 | 0.00 | 0.00 | 0.00 | 70 | 1010.9 |
| 20260505161004 | 59 | 310 | 2.6 | 6.1 | 0.00 | 0.00 | 0.00 | 69 | 1010.9 |
| 20260505153004 | 60 | 317 | 2.6 | 6.1 | 0.00 | 0.00 | 0.00 | 68 | 1011.0 |
| 20260505152004 | 60 | 332 | 1.7 | 7.0 | 0.00 | 0.00 | 0.00 | 68 | 1011.0 |
| 20260505151004 | 60 | 302 | 3.5 | 7.8 | 0.00 | 0.00 | 0.00 | 68 | 1011.1 |
| 20260505125003 | 60 | 304 | 2.6 | 7.0 | 0.00 | 0.00 | 0.00 | 67 | 1011.7 |
| 20260505122003 | 60 | 304 | 2.6 | 7.8 | 0.00 | 0.00 | 0.00 | 70 | 1011.7 |
| 20260505121003 | 59 | 299 | 4.3 | 7.0 | 0.00 | 0.00 | 0.00 | 69 | 1011.7 |
| 20260505115004 | 59 | 314 | 3.5 | 8.7 | 0.00 | 0.00 | 0.00 | 69 | 1011.8 |
| 20260505114003 | 59 | 314 | 2.6 | 7.0 | 0.00 | 0.00 | 0.00 | 70 | 1011.8 |
| 20260505112004 | 58 | 306 | 4.3 | 10.4 | 0.00 | 0.00 | 0.00 | 70 | 1012.0 |
| 20260505111004 | 58 | 315 | 4.3 | 10.4 | 0.00 | 0.00 | 0.00 | 71 | 1012.0 |
| 20260505102004 | 59 | 296 | 2.6 | 7.0 | 0.00 | 0.00 | 0.00 | 70 | 1012.1 |
| 20260505101004 | 58 | 326 | 4.3 | 7.8 | 0.00 | 0.00 | 0.00 | 71 | 1012.2 |
| 20260505100003 | 58 | 317 | 3.5 | 8.7 | 0.00 | 0.00 | 0.00 | 70 | 1012.2 |
| 20260505095004 | 58 | 316 | 3.5 | 8.7 | 0.00 | 0.00 | 0.00 | 70 | 1012.2 |
| 20260505094003 | 59 | 298 | 1.7 | 10.4 | 0.00 | 0.00 | 0.00 | 70 | 1012.2 |
| 20260505093003 | 59 | 275 | 2.6 | 8.7 | 0.00 | 0.00 | 0.00 | 71 | 1012.1 |
| 20260505092004 | 59 | 320 | 2.6 | 7.8 | 0.00 | 0.00 | 0.00 | 70 | 1012.2 |
| 20260505091004 | 59 | 306 | 3.5 | 8.7 | 0.00 | 0.00 | 0.00 | 71 | 1012.2 |
| 20260505090004 | 58 | 304 | 2.6 | 7.8 | 0.00 | 0.00 | 0.00 | 72 | 1012.2 |
| 20260505085004 | 58 | 285 | 1.7 | 10.4 | 0.00 | 0.00 | 0.00 | 74 | 1012.4 |
| 20260505083004 | 58 | 314 | 4.3 | 8.7 | 0.00 | 0.00 | 0.00 | 72 | 1012.4 |
| 20260505082004 | 58 | 319 | 3.5 | 7.8 | 0.00 | 0.00 | 0.00 | 73 | 1012.3 |
| 20260505081003 | 58 | 294 | 1.7 | 6.1 | 0.00 | 0.00 | 0.00 | 75 | 1012.3 |
| 20260505080004 | 57 | 276 | 1.7 | 10.4 | 0.00 | 0.00 | 0.00 | 76 | 1012.3 |
| 20260505075003 | 57 | 315 | 1.7 | 7.0 | 0.00 | 0.00 | 0.00 | 78 | 1012.2 |
| 20260505074003 | 57 | 328 | 0.9 | 2.6 | 0.00 | 0.00 | 0.00 | 81 | 1012.2 |
| 20260505073004 | 56 | 314 | 0.9 | 4.3 | 0.00 | 0.00 | 0.00 | 84 | 1012.3 |
| 20260505072003 | 56 | 312 | 2.6 | 6.1 | 0.00 | 0.00 | 0.00 | 84 | 1012.3 |
| 20260505071004 | 56 | 295 | 1.7 | 5.2 | 0.00 | 0.00 | 0.00 | 88 | 1012.3 |
| 20260505070004 | 54 | 324 | 1.7 | 5.2 | 0.00 | 0.00 | 0.00 | 90 | 1012.4 |
| 20260505064004 | 53 | 306 | 0.9 | 2.6 | 0.00 | 0.00 | 0.00 | 91 | 1012.6 |
| 20260505063004 | 53 | 323 | 0.9 | 2.6 | 0.00 | 0.00 | 0.00 | 91 | 1012.8 |
| 20260505062004 | 52 | 327 | 0.0 | 1.7 | 0.00 | 0.00 | 0.00 | 91 | 1012.6 |
| 20260505061003 | 52 | 322 | 0.9 | 4.3 | 0.00 | 0.00 | 0.00 | 91 | 1012.7 |
| 20260505060004 | 52 | 321 | 1.7 | 4.3 | 0.00 | 0.00 | 0.00 | 91 | 1012.5 |
| 20260505054003 | 52 | 327 | 0.0 | 0.9 | 0.00 | 0.00 | 0.00 | 91 | 1012.7 |
| 20260505053004 | 51 | 327 | 0.0 | 0.0 | 0.00 | 0.00 | 0.00 | 91 | 1012.6 |
| 20260505051004 | 51 | 327 | 0.0 | 0.0 | 0.00 | 0.00 | 0.00 | 91 | 1012.5 |
| 20260505041004 | 52 | 317 | 1.7 | 2.6 | 0.00 | 0.00 | 0.00 | 91 | 1012.6 |
| 20260505035003 | 53 | 294 | 0.9 | 2.6 | 0.00 | 0.00 | 0.00 | 91 | 1012.7 |
| 20260505034004 | 53 | 294 | 0.9 | 1.7 | 0.00 | 0.00 | 0.00 | 91 | 1012.8 |
| 20260505033003 | 53 | 294 | 0.9 | 1.7 | 0.00 | 0.00 | 0.00 | 91 | 1012.9 |
| 20260505032004 | 53 | 294 | 0.9 | 1.7 | 0.00 | 0.00 | 0.00 | 91 | 1012.9 |
| 20260505031004 | 53 | 294 | 0.0 | 0.9 | 0.00 | 0.00 | 0.00 | 91 | 1013.0 |
| 20260505025004 | 53 | 294 | 0.0 | 0.9 | 0.00 | 0.00 | 0.00 | 91 | 1012.9 |
| 20260505024004 | 53 | 294 | 0.9 | 0.9 | 0.00 | 0.00 | 0.00 | 90 | 1012.8 |
| 20260505023003 | 53 | 294 | 0.0 | 0.9 | 0.00 | 0.00 | 0.00 | 91 | 1012.8 |
| 20260505022004 | 53 | 294 | 0.0 | 0.9 | 0.00 | 0.00 | 0.00 | 91 | 1012.8 |
| 20260505021004 | 53 | 294 | 0.9 | 1.7 | 0.00 | 0.00 | 0.00 | 91 | 1012.9 |
| 20260505020004 | 53 | 295 | 0.9 | 2.6 | 0.00 | 0.00 | 0.00 | 91 | 1013.0 |
| 20260505015003 | 53 | 291 | 0.0 | 0.9 | 0.00 | 0.00 | 0.00 | 90 | 1013.1 |
| 20260505014004 | 54 | 291 | 0.0 | 0.9 | 0.00 | 0.00 | 0.00 | 90 | 1013.2 |
| 20260505013003 | 54 | 291 | 0.0 | 0.0 | 0.00 | 0.00 | 0.00 | 90 | 1013.2 |
| 20260505012004 | 54 | 291 | 0.0 | 0.9 | 0.00 | 0.00 | 0.00 | 90 | 1013.2 |
| 20260505011003 | 54 | 291 | 0.0 | 0.9 | 0.00 | 0.00 | 0.00 | 90 | 1013.4 |
| 20260505010003 | 54 | 291 | 0.0 | 2.6 | 0.00 | 0.00 | 0.00 | 90 | 1013.2 |
| 20260505004004 | 55 | 291 | 0.0 | 0.9 | 0.00 | 0.00 | 0.00 | 90 | 1013.6 |
| 20260505003004 | 55 | 291 | 0.0 | 1.7 | 0.00 | 0.00 | 0.00 | 90 | 1013.6 |
| 20260505002004 | 55 | 290 | 0.9 | 1.7 | 0.00 | 0.00 | 0.00 | 90 | 1013.4 |
| 20260505001004 | 55 | 219 | 0.0 | 0.9 | 0.00 | 0.00 | 0.00 | 90 | 1013.6 |
| 20260505000004 | 55 | 219 | 0.0 | 0.0 | 0.00 | 0.00 | 0.00 | 90 | 1013.8 |
| 20260504235003 | 55 | 219 | 0.0 | 0.0 | 0.00 | 0.00 | 0.00 | 90 | 1013.7 |
| 20260504233004 | 55 | 219 | 0.0 | 0.0 | 0.00 | 0.00 | 0.00 | 90 | 1013.7 |
| 20260504232003 | 55 | 219 | 0.0 | 0.0 | 0.00 | 0.00 | 0.00 | 90 | 1013.7 |
| 20260504231004 | 55 | 219 | 0.0 | 0.9 | 0.00 | 0.00 | 0.00 | 90 | 1013.7 |
| 20260504230003 | 55 | 219 | 0.0 | 0.0 | 0.00 | 0.00 | 0.00 | 90 | 1013.7 |
| 20260504225003 | 56 | 219 | 0.0 | 0.0 | 0.00 | 0.00 | 0.00 | 90 | 1013.7 |
| 20260504223004 | 56 | 219 | 0.0 | 0.0 | 0.00 | 0.00 | 0.00 | 90 | 1013.8 |
| 20260504222003 | 56 | 219 | 0.0 | 0.0 | 0.00 | 0.00 | 0.00 | 90 | 1013.9 |
| 20260504221003 | 56 | 219 | 0.0 | 0.0 | 0.00 | 0.00 | 0.00 | 90 | 1013.9 |
| 20260504220004 | 56 | 219 | 0.0 | 0.9 | 0.00 | 0.00 | 0.00 | 90 | 1013.9 |
| 20260504215003 | 56 | 219 | 0.0 | 0.0 | 0.00 | 0.00 | 0.00 | 90 | 1014.0 |
| 20260504214003 | 56 | 219 | 0.0 | 0.9 | 0.00 | 0.00 | 0.00 | 90 | 1014.1 |
| 20260504211003 | 56 | 219 | 0.0 | 0.9 | 0.00 | 0.00 | 0.00 | 89 | 1013.9 |
| 20260504210004 | 56 | 219 | 0.0 | 0.0 | 0.00 | 0.00 | 0.00 | 88 | 1013.9 |
| 20260504205004 | 56 | 219 | 0.0 | 0.9 | 0.00 | 0.00 | 0.00 | 88 | 1013.9 |
| 20260504203004 | 56 | 219 | 0.0 | 0.0 | 0.00 | 0.00 | 0.00 | 87 | 1013.9 |
| 20260504202003 | 57 | 219 | 0.0 | 0.0 | 0.00 | 0.00 | 0.00 | 87 | 1013.9 |
| 20260504201003 | 57 | 219 | 0.0 | 0.0 | 0.00 | 0.00 | 0.00 | 87 | 1013.9 |
| 20260504200004 | 57 | 219 | 0.0 | 1.7 | 0.00 | 0.00 | 0.00 | 86 | 1013.8 |
| 20260504194004 | 58 | 219 | 0.0 | 1.7 | 0.00 | 0.00 | 0.00 | 85 | 1013.7 |
| 20260504192004 | 58 | 219 | 0.0 | 0.0 | 0.00 | 0.00 | 0.00 | 85 | 1013.5 |
| 20260504191003 | 58 | 219 | 0.0 | 0.9 | 0.00 | 0.00 | 0.00 | 85 | 1013.5 |
| 20260504190003 | 58 | 219 | 0.9 | 2.6 | 0.00 | 0.00 | 0.00 | 85 | 1013.4 |
| 20260504185004 | 59 | 219 | 0.0 | 2.6 | 0.00 | 0.00 | 0.00 | 84 | 1013.4 |